Regional Weather Roundup
Issued by NWS

Home | Current Version | Previous Version | Text Only | Print | Product List | Glossary On
Versions: 1 2 3 4 5 6 7 8 9 10 11 12 13 14 15 16 17 18 19 20 21 22 23 24 25 26 27 28 29 30 31 32 33 34 35 36 37 38 39 40 41 42 43 44 45 46 47 48 49 50
000
ASUS43 KLOT 282110
RWRIL

ILLINOIS REGIONAL WEATHER ROUNDUP
NATIONAL WEATHER SERVICE CHICAGO/ROMEOVILLE IL
300 PM CST SAT FEB 28 2015

NOTE: "FAIR" INDICATES FEW OR NO CLOUDS BELOW 12,000 FEET WITH NO
SIGNIFICANT WEATHER AND/OR OBSTRUCTIONS TO VISIBILITY.

* THESE STATIONS ARE NOT UNDER NWS QUALITY CONTROL. THEY ALSO MAY NOT
  REPORT WEATHER SUCH AS PRECIPITATION OR FOG.

ILZ001-002-007-009-015-016-024-282200-
NORTHWEST ILLINOIS

CITY           SKY/WX    TMP DP  RH WIND       PRES   REMARKS
MOLINE         PTSUNNY   18   3  52 E8        30.54F WCI   8
STERLING*      SUNNY     16   7  67 E7        30.57F WCI   6
SAVANNA*       SUNNY     19   2  48 CALM      30.57F
$$

ILZ003-004-008-010-011-017-018-282200-
NORTH CENTRAL ILLINOIS

CITY           SKY/WX    TMP DP  RH WIND       PRES   REMARKS
ROCKFORD       PTSUNNY   16   3  56 SE7       30.59F WCI   6
FREEPORT*      SUNNY     15   2  57 SE6       30.58S WCI   6
ROCHELLE*      SUNNY     17   6  63 E5        30.57F WCI   9
DE KALB*       SUNNY     16   4  58 SE6       30.56F WCI   7
PERU*          MOSUNNY   22   8  55 SE7       30.57S WCI  13
$$

ILZ005-006-012>014-019>023-282200-
NORTHEAST ILLINOIS

CITY           SKY/WX    TMP DP  RH WIND       PRES   REMARKS
CHICAGO-OHARE  MOSUNNY   20   0  41 SE8       30.57F WCI  10
CHICAGO-MIDWAY MOSUNNY   23   2  40 S7        30.59F WCI  15
AURORA         SUNNY     20   3  48 SE9       30.58F WCI   9
LANSING*       SUNNY     21   4  48 SE6       30.59F WCI  14
JOLIET*        SUNNY     19   5  56 SE7       30.59F WCI   9
WAUKEGAN       SUNNY     18   6  59 SE6       30.57F WCI  10
DUPAGE AIRPORT SUNNY     19   2  47 S8        30.57F WCI   9
KANKAKEE*      SUNNY     21  10  62 SE7       30.59F WCI  13
WHEELING       SUNNY     20  -2  38 S5        30.60F WCI  13
MORRIS*        SUNNY     21   9  58 SE7       30.58S WCI  12
ROMEOVILLE*    SUNNY     19   5  53 S9        30.58F WCI   9
NORTHERLY ISL    N/A     21   4  47 SE9         N/A  WCI  11
$$

LMZ740>746-282200-
SOUTHERN LAKE MICHIGAN

STATION/POSITION SKY/WX   TEMP    WIND        PRES    VSBY  WAVE
                          AIR SEA DIR/SP/G                  HT/PER
                          (F)     (DEG/KT/KT) (MB)    (MI)  (FT/S)
WAUKEGAN HARBOR            22     140/  8/ 10   N/A
HARRISON CRIB              18     120/ 11/ 14   N/A
BURNHAM HARBOR             21     110/  9/  9   N/A
CALUMET HARBOR             21     130/  6/  8 1034.6S
MICHIGAN CITY              20     120/  7/  9   N/A
$$

ILZ025>027-034>036-040-047-049-050-058-095>099-282200-
WEST-CENTRAL ILLINOIS

CITY           SKY/WX    TMP DP  RH WIND       PRES   REMARKS
QUINCY         LGT SNOW  20  14  77 SE7       30.49F WCI  11
GALESBURG*     CLOUDY    22   6  51 SE5       30.52F WCI  16
MACOMB*        CLOUDY    23   9  56 E8        30.53F WCI  14
JACKSONVILLE*  LGT SNOW  24  17  77 E8        30.53R WCI  14
PITTSFIELD*    LGT SNOW  22  19  86 SE7       30.52S WCI  14
$$

ILZ028>032-037-038-041>044-048-051>054-059>061-282200-
CENTRAL ILLINOIS

CITY           SKY/WX    TMP DP  RH WIND       PRES   REMARKS
PONTIAC        MOSUNNY   21  13  71 E9        30.57F WCI  11
BLOOMINGTON    CLOUDY    23  11  60 S10       30.54S WCI  12
DECATUR        CLOUDY    25  12  58 E10       30.54S WCI  15
PEORIA         CLOUDY    26   9  48 S6        30.54S WCI  19
LACON*         CLOUDY    19  10  67 E9        30.56S WCI   8
LINCOLN*       CLOUDY    25  13  59 SE7       30.56F WCI  18
SPRINGFIELD    LGT SNOW  24  13  62 E9        30.53S WCI  14
TAYLORVILLE    CLOUDY    25  12  58 SE9       30.53S WCI  15
$$

ILZ033-039-045-046-055>057-062-063-282200-
EAST-CENTRAL ILLINOIS

CITY           SKY/WX    TMP DP  RH WIND       PRES   REMARKS
CHAMPAIGN      CLOUDY    23  11  60 E9        30.54F WCI  13
DANVILLE*      PTSUNNY   25   9  51 E9        30.52F WCI  15
RANTOUL*       PTSUNNY   26  11  53 E8        30.54F WCI  18
MATTOON        CLOUDY    26   6  42 SE9       30.52F WCI  17
PARIS*         CLOUDY    28   8  42 E3        30.55S
$$

ILZ079-100>102-282200-
SOUTHWEST ILLINOIS

CITY           SKY/WX    TMP DP  RH WIND       PRES   REMARKS
BELLEVILLE     LGT SNOW  25  23  93 SE5       30.51S VSB 3/4 WCI  19
CAHOKIA*       SNOW      26  22  84 SE5       30.51F VSB 1/2 WCI  20
SPARTA*        LGT SNOW  26  21  82 SE3       30.52S
$$

ILZ064>066-069>071-074>076-080>082-084>086-088>090-092>094-282200-
SOUTH-CENTRAL ILLINOIS

CITY           SKY/WX    TMP DP  RH WIND       PRES   REMARKS
CARBONDALE     CLOUDY    32  15  49 VRB5      30.50F WCI  27
CAIRO*         CLOUDY    35  19  52 N7        30.49F WCI  29
EFFINGHAM*     CLOUDY    28   5  37 E7        30.54F WCI  21
MARION         CLOUDY    34  14  44 E8        30.50  WCI  27
MT. VERNON     CLOUDY    30  16  55 E8        30.52S WCI  23
CENTRALIA*     CLOUDY    29  17  61 E5        30.52R HAZE    WCI  24
SALEM*         FLURRIES  30  17  56 SE3       30.52S
METROPOLIS*    CLOUDY    35  17  48 CALM      30.48F
$$

ILZ067-068-072-073-078-083-087-091-282200-
SOUTHEAST ILLINOIS

CITY           SKY/WX    TMP DP  RH WIND       PRES   REMARKS
LAWRENCEVILLE  CLOUDY    29  14  53 E9        30.55F WCI  20
FLORA*         PTSUNNY   29  14  53 E5        30.54S WCI  24
FAIRFIELD*     CLOUDY    32  16  52 E7        30.51F WCI  25
HARRISBURG*    CLOUDY    32  17  53 E8        30.53S WCI  25
ROBINSON*      CLOUDY    29  11  46 E8        30.55F WCI  21
CARMI*         CLOUDY    35  22  59 SE8       30.51F WCI  28
$$

ABBREVIATIONS USED IN REMARKS
   TC - TEMPERATURE IN CELSIUS
  WCI - WIND CHILL INDEX
   HX - HEAT INDEX
  VSB - VISIBILITY
$$




USA.gov is the U.S. government's official web portal to all federal, state and local government web resources and services.